This is the latest recevied weather packets stored in our database for station/object SV4FHR-2. If no packets are shown the sender has not sent any weather packets the latest 10 day(s).
| Time | Temp. | Humidity | Pressure | Rain* | Wind** | Luminosity | Snow |
|---|---|---|---|---|---|---|---|
| 1778099082 | 16.67° C | 78% | 1013.2 hPa | 0 mm | - | - | - |
| 1778098782 | 16.67° C | 78% | 1013.1 hPa | 0 mm | - | - | - |
| 1778098482 | 17.22° C | 78% | 1012.9 hPa | 0 mm | - | - | - |
| 1778098181 | 17.22° C | 78% | 1013.2 hPa | 0 mm | - | - | - |
| 1778097881 | 17.22° C | 78% | 1012.9 hPa | 0 mm | - | - | - |
| 1778097581 | 17.22° C | 77% | 1013.1 hPa | 0 mm | - | - | - |
| 1778097281 | 17.78° C | 77% | 1012.8 hPa | 0 mm | - | - | - |
| 1778096981 | 17.78° C | 74% | 1012.6 hPa | 0 mm | - | - | - |
| 1778096681 | 17.78° C | 68% | 1012.6 hPa | 0 mm | - | - | - |
| 1778096381 | 18.33° C | 66% | 1012.4 hPa | 0 mm | - | - | - |
| 1778096082 | 18.33° C | 65% | 1012.4 hPa | 0 mm | - | - | - |
| 1778095782 | 18.33° C | 64% | 1012.4 hPa | 0 mm | - | - | - |
| 1778095482 | 18.89° C | 63% | 1012.6 hPa | 0 mm | - | - | - |
| 1778095181 | 18.89° C | 63% | 1012.6 hPa | 0 mm | - | - | - |
| 1778094881 | 18.89° C | 63% | 1012.5 hPa | 0 mm | - | - | - |
| 1778094581 | 18.89° C | 62% | 1012.6 hPa | 0 mm | - | - | - |
| 1778094281 | 18.89° C | 63% | 1012.8 hPa | 0 mm | - | - | - |
| 1778093981 | 18.89° C | 63% | 1012.5 hPa | 0 mm | - | - | - |
| 1778093681 | 18.89° C | 63% | 1012.4 hPa | 0 mm | - | - | - |
| 1778093381 | 19.44° C | 63% | 1012.6 hPa | 0 mm | - | - | - |
| 1778093080 | 19.44° C | 63% | 1012.4 hPa | 0 mm | - | - | - |
| 1778092780 | 19.44° C | 63% | 1012.1 hPa | 0 mm | - | - | - |
| 1778092480 | 19.44° C | 65% | 1012 hPa | 0 mm | - | - | - |
| 1778092182 | 18.89° C | 66% | 1012.1 hPa | 0 mm | - | - | - |
| 1778091882 | 19.44° C | 64% | 1011.8 hPa | 0 mm | - | - | - |
* Rain latest hour (hover to see other rain measurements)
** Current wind speed in m/s (hover to see current wind gust speed)